Home > Weather > Visalia > Past weeks

Flag for USA Weather for the Past 2 Weeks in Visalia, California, USA

Now
67 °F

Sunny.


Feels Like: 67 °F
Forecast: 50 / 79 °F
Wind: 3 mph from Northeast

Location: Visalia Municipal

Current Time: Apr 28, 2016 at 7:54:37 PM

Latest Report: Apr 28, 2016 at 6:56 PM


Visibility: 10 mi

Pressure: 29.90 "Hg

Humidity: 42%

Dew Point: 43 °F

Location of VisaliaLocation

Historic Weather in Visalia — Graph

°F

Visalia Temperature Yesterday

Maximum temperature yesterday: 72 °F (at 2:56 PM)
Minimum temperature yesterday: 50 °F (at 3:56 AM)
Average temperature yesterday: 59 °F

High & Low Weather Summary for the Past Weeks

 TemperatureHumidityPressure
High90 °F (Apr 18, 3:56 PM)93% (Apr 14, 6:56 AM)30.22 "Hg (Apr 14, 6:56 AM)
Low45 °F (Apr 26, 4:56 AM)16% (Apr 17, 4:56 PM)29.78 "Hg (Apr 27, 5:56 PM)
Average63 °F55%30.00 "Hg
* Reported Apr 13 5:56 PM — Apr 28 5:56 PM, Visalia, Weather by CustomWeather, © 2016

Note: Actual official high and low records may vary slightly from our data, if they occured in-between our weather recording intervals... More about our weather records

Advertising

Visalia Weather History for the Previous 24 Hours

Scroll right to see more
 ConditionsComfort  
Time TempWeatherWind HumidityBarometerVisibility
5:56 PM
Thu, Apr 28
69 °FSunny.8 mph39%29.90 "Hg10 mi
4:56 PM69 °FSunny.10 mph41%29.90 "Hg10 mi
3:56 PM67 °FSunny.8 mph45%29.91 "Hg10 mi
2:56 PM66 °FScattered clouds.9 mph49%29.93 "Hg10 mi
1:56 PM63 °FOvercast.3 mph54%29.95 "Hg10 mi
12:56 PM60 °FOvercast.3 mph60%29.96 "Hg10 mi
11:56 AM59 °FOvercast.7 mph64%29.96 "Hg10 mi
10:56 AM57 °FOvercast.No wind69%29.95 "Hg10 mi
9:56 AM55 °FOvercast.5 mph74%29.94 "Hg10 mi
8:56 AM54 °FOvercast.5 mph74%29.93 "Hg10 mi
7:56 AM53 °FOvercast.5 mph77%29.92 "Hg10 mi
6:56 AM52 °FMostly cloudy.5 mph80%29.90 "Hg10 mi
5:56 AM50 °FOvercast.5 mph86%29.88 "Hg10 mi
3:56 AM47 °FPassing clouds.6 mph93%29.86 "Hg10 mi
2:56 AM49 °FClear.5 mph86%29.85 "Hg10 mi
1:56 AM50 °FClear.6 mph86%29.85 "Hg10 mi
12:56 AM51 °FClear.6 mph83%29.85 "Hg10 mi
10:56 PM
Wed, Apr 27
53 °FPassing clouds.6 mph80%29.83 "Hg10 mi
9:56 PM57 °FPassing clouds.13 mph64%29.82 "Hg10 mi
8:56 PM57 °FLight rain. Overcast.16 mph74%29.82 "Hg10 mi
7:56 PM59 °FOvercast.14 mph69%29.81 "Hg10 mi
Weather by CustomWeather, © 2016

See weather overviewHow to use our weather pages